Regional Weather Roundup
Issued by NWS Albany, NY

Home | Current Version | Previous Version | Text Only | Print | Product List | Glossary On
Versions: 1 2 3 4 5 6 7 8 9 10 11 12 13 14 15 16 17 18 19 20 21 22 23 24 25 26 27 28 29 30 31 32 33 34 35 36 37 38 39 40 41 42 43 44 45 46 47 48 49 50
000
ASUS41 KALY 261610
RWRALY

NEW YORK STATE HOURLY WEATHER ROUNDUP
NATIONAL WEATHER SERVICE ALBANY NY
1200 PM EDT MON SEP 26 2016

NOTE: "FAIR" INDICATES FEW OR NO CLOUDS BELOW 12,000 FEET WITH NO
SIGNIFICANT WEATHER AND/OR NO OBSTRUCTIONS TO VISIBILITY.

NYZ032-033-038>043-046>054-057>066-NYZ062>081-082-084-261700-
EAST


CITY           SKY/WX    TMP DP  RH WIND       PRES   REMARKS
ALBANY         PTSUNNY   61  39  44 S12G20    30.15F
GLENS FALLS    SUNNY     59  39  47 S9        30.15F
POUGHKEEPSIE   SUNNY     65  43  44 MISG      30.15F
NEWBURGH       SUNNY     66  48  52 SE12G21   30.17F
MONTGOMERY     MOSUNNY   65  48  54 VRB3      30.15F
WHITE PLAINS   MOSUNNY   64  47  53 VRB7      30.17F
ISLIP          PTSUNNY   68  45  43 SE12      30.18F
NEW YORK CITY  PTSUNNY   71  47  42 S12G20    30.16F
CENTRAL PARK   MOSUNNY   70  49  47 VRB5      30.19F
$$

NYZ005>009-017-018-044>046-055-056-261700-
CENTRAL


CITY           SKY/WX    TMP DP  RH WIND       PRES   REMARKS
FULTON         MOSUNNY   61  47  59 VRB6      30.01F
SYRACUSE       CLOUDY    63  46  54 S12       30.02F
ROME           MOSUNNY   61  45  55 E10       30.09F
ELMIRA         MOSUNNY   70  51  51 S16G31    30.03F
BINGHAMTON     MOSUNNY   63  44  50 S15G25    30.08F
MONTICELLO     MOSUNNY   61  45  55 S13       30.17F
$$

NYZ026>034-041>043-087-261700-
NORTH


CITY           SKY/WX    TMP DP  RH WIND       PRES   REMARKS
WATERTOWN      PTSUNNY   65  43  44 SE8G17    30.02F
FORT DRUM      NOT AVBL
OGDENSBURG     FAIR      64  42  44 S5        30.04
MASSENA        CLOUDY    62  41  46 VRB6      30.07F
SARANAC LAKE   SUNNY     58  36  43 S9        30.08F
PLATTSBURGH    SUNNY     59  44  57 SE15      30.11F
$$

NYZ001>004-010>016-019>021-085-261700-
WEST


CITY           SKY/WX    TMP DP  RH WIND       PRES   REMARKS
NIAGARA FALLS  LGT RAIN  69  51  52 S9        29.88F
BUFFALO        PTSUNNY   69  50  50 S8        29.88F
DUNKIRK        PTSUNNY   69  52  54 W12       29.90R
JAMESTOWN      PTSUNNY   66  52  59 S12       29.94F
WELLSVILLE     CLOUDY    65  51  60 S12G22    30.03F
ROCHESTER      CLOUDY    68  50  52 S9        29.93F
PENN YAN       CLOUDY    67  49  52 S15G25    29.99F
$$

             KEY
       WCI = WIND CHILL INDEX
       VSB = VISIBILITY
       HX  = HEAT INDEX
$$



USA.gov is the U.S. government's official web portal to all federal, state and local government web resources and services.